Miscellaneous Local Product
Issued by NWS North Platte, NE

Home | Current Version | Previous Version | Text Only | Print | Product List | Glossary On
Versions: 1 2 3 4 5 6 7 8 9 10 11 12 13 14 15 16 17 18 19 20 21 22 23 24 25 26 27 28 29 30 31 32 33 34 35 36 37 38 39 40 41 42 43 44 45 46 47 48 49 50
000
AXUS43 KLBF 270010
MISLBF


WESTERN AND NORTH CENTRAL NEBRASKA HOURLY WEATHER ROUNDUP
NATIONAL WEATHER SERVICE NORTH PLATTE NE
600 PM CST THU FEB 26 2015

***STATIONS NOT REPORTING VARIABLES SUCH AS SKY/WEATHER OR
PRESSURE ARE PROVIDED BY THE NEBRASKA DEPARTMENT OF
ROADS...RAWS...AND APRS NETWORKS...AND ARE NOT UNDER
NATIONAL WEATHER SERVICE QUALITY CONTROL***

...OBSERVATIONS IN AND NEAR THE EASTERN PANHANDLE OF NEBRASKA...

CITY           SKY/WX    TMP DP  RH WIND       PRES   REMARKS
PINE RIDGE     CLEAR     12  -5  46 NE7       30.36S WCI   1
CHADRON        CLEAR     13  -3  49 NE7       30.37R WCI   3
ALLIANCE       MOCLDY    11   0  61 VRB5      30.30R WCI   3
SIDNEY         CLOUDY    15   5  64 NE10      30.25S WCI   2
WHITECLAY        N/A     11  -6  45 NE6         N/A  WCI   2
LISCO            N/A     18  -4  37 N7          N/A  WCI   9
BIG SPRINGS      N/A     19   3  49 NE8         N/A  WCI   9
LEWELLEN         N/A     14  -8  36 NE6         N/A  WCI   5
$$

...OBSERVATIONS IN NORTH CENTRAL NEBRASKA...

CITY           SKY/WX    TMP DP  RH WIND       PRES   REMARKS
VALENTINE      CLEAR     10  -3  55 NW9       30.43S WCI  -3
THEDFORD       CLEAR     13  -3  48 N8        30.39S WCI   2
AINSWORTH      PTCLDY     9  -3  57 N13       30.43S WCI  -6
O`NEILL        PTCLDY     9  -1  64 NW9       30.47S WCI  -4
ORD            CLEAR     13  -7  40 N16       30.44R WCI  -3
BROKEN BOW     CLEAR     14  -6  40 N10       30.40R WCI   1
BROWNLEE         N/A      6  -9  49 SE12        N/A  WCI  -9
SPRINGVIEW       N/A     10  -2  59 N5G14       N/A  WCI   2
BREWSTER         N/A     19   2  49 N9          N/A  WCI   8
ROSE             N/A     19   8  61 E5          N/A  WCI  12
NEWPORT          N/A     17   4  59 S9          N/A  WCI   5
SARGENT          N/A     15  -4  43 N6          N/A  WCI   6
COMSTOCK         N/A     18  -4  38 N9          N/A  WCI   7
CHAMBERS         N/A      8  -9  46 W3G12       N/A
EWING            N/A      8  -1  68 N5          N/A  WCI   0
$$

...OBSERVATIONS IN SOUTHWEST NEBRASKA AND FAR NORTHEAST COLORADO...

CITY           SKY/WX    TMP DP  RH WIND       PRES   REMARKS
WRAY           CLOUDY    18  11  76 E5        30.29S HAZE    WCI  11
IMPERIAL         N/A     19   0  43 NE10      30.32S WCI   7
OGALLALA       MOCLDY    17  -2  43 NE6       30.33F WCI   9
NORTH PLATTE   CLEAR     17  -7  34 N12       30.37R WCI   4
MCCOOK         PTCLDY    23  -3  32 NE10      30.37S WCI  12
LEXINGTON      CLEAR     18  -8  31 N10       30.40S WCI   6
PAXTON           N/A     18  -1  43 N7          N/A  WCI   9
BRADY            N/A     18  -6  33 CALM        N/A
GOTHENBURG       N/A     17  -7  34 N9          N/A  WCI   6
CALLAWAY         N/A     13  -5  44 N8          N/A  WCI   2
$$

...NORTH PLATTE AREA...

CITY           SKY/WX    TMP DP  RH WIND       PRES   REMARKS
AIRPORT        CLEAR     17  -7  34 N12       30.37R WCI   4
$$

...SOME WEATHER OBSERVATIONS FROM AROUND THE REGION...

CITY           SKY/WX    TMP DP  RH WIND       PRES   REMARKS
DENVER         LGT SNOW  14  12  92 E15       30.10F VSB 1   WCI  -1
LARAMIE        CLOUDY     9   1  70 SE16      29.94S WCI  -8
CHEYENNE       LGT SNOW  10   3  73 E10       30.07S WCI  -4
SCOTTSBLUFF    CLOUDY    15   6  67 E9        30.28S WCI   3
RAPID CITY     CLEAR      7  -4  60 NW9       30.39S WCI  -7
PIERRE         CLEAR     10  -2  58 N8        30.51S WCI  -2
WINNER         FAIR      11  -7  44 N12       30.48S WCI  -3
SIOUX FALLS    PTCLDY     2  -5  72 NW14      30.50R WCI -16
OMAHA          MOCLDY     9   2  73 N12       30.53S WCI  -6
GRAND ISLAND   CLEAR     13  -4  46 N12       30.46S WCI  -1
KANSAS CITY    PTCLDY    14  -1  51 N15       30.46R WCI  -1
WICHITA        PTCLDY    22  -5  30 NE14      30.44R WCI   9
HAYS           CLEAR     19  -8  30 NE10      30.41S WCI   8
LIBERAL        MOCLDY    21   7  53 NE10      30.34S WCI  10
GOODLAND       CLOUDY    18   6  59 NE6       30.29S WCI  10
$$



USA.gov is the U.S. government's official web portal to all federal, state and local government web resources and services.